H1 CPF 2 NER 2024 2 13 9 044 01 glonass128 H2 1106401 9128 37867 2024 2 13 0 0 0 2024 2 16 23 45 0 900 1 1 0 0 0 1 H9 10 0 60353 0.00000 0 20563813.141 -13857483.426 6164481.192 10 0 60353 900.00000 0 19767183.061 -13336047.162 9194508.633 10 0 60353 1800.00000 0 18762771.351 -12495667.921 12046934.263 10 0 60353 2700.00000 0 17608482.325 -11325590.028 14666764.849 10 0 60353 3600.00000 0 16364994.690 -9827765.080 17003515.352 10 0 60353 4500.00000 0 15093170.599 -8017016.159 19012158.664 10 0 60353 5400.00000 0 13851479.018 -5920674.967 20653971.915 10 0 60353 6300.00000 0 12693538.943 -3577706.197 21897265.207 10 0 60353 7200.00000 0 11665882.757 -1037353.986 22717980.567 10 0 60353 8100.00000 0 10806031.023 1642635.765 23100151.017 10 0 60353 9000.00000 0 10140957.382 4398146.488 23036211.675 10 0 60353 9900.00000 0 9686006.708 7161090.476 22527156.961 10 0 60353 10800.00000 0 9444311.539 9861980.903 21582540.194 10 0 60353 11700.00000 0 9406731.889 12432572.963 20220314.158 10 0 60353 12600.00000 0 9552322.479 14808467.276 18466513.674 10 0 60353 13500.00000 0 9849309.900 16931569.430 16354783.782 10 0 60353 14400.00000 0 10256541.151 18752304.376 13925759.882 10 0 60353 15300.00000 0 10725345.129 20231493.470 11226309.044 10 0 60353 16200.00000 0 11201730.834 21341814.890 8308644.656 10 0 60353 17100.00000 0 11628831.066 22068784.713 5229329.446 10 0 60353 18000.00000 0 11949489.056 22411215.348 2048184.911 10 0 60353 18900.00000 0 12108878.253 22381129.741 -1172872.353 10 0 60353 19800.00000 0 12057042.942 22003132.784 -4371044.560 10 0 60353 20700.00000 0 11751249.761 21313264.663 -7483892.209 10 0 60353 21600.00000 0 11158047.410 20357383.526 -10450573.319 10 0 60353 22500.00000 0 10254943.832 19189145.525 -13213056.051 10 0 60353 23400.00000 0 9031626.301 17867668.291 -15717278.548 10 0 60353 24300.00000 0 7490669.477 16454977.976 -17914230.772 10 0 60353 25200.00000 0 5647698.756 15013349.753 -19760934.889 10 0 60353 26100.00000 0 3530999.996 13602656.422 -21221302.932 10 0 60353 27000.00000 0 1180590.911 12277839.322 -22266853.540 10 0 60353 27900.00000 0 -1353207.117 11086610.221 -22877272.828 10 0 60353 28800.00000 0 -4011636.353 10067482.446 -23040808.151 10 0 60353 29700.00000 0 -6729729.838 9248214.758 -22754487.421 10 0 60353 30600.00000 0 -9438803.720 8644733.169 -22024160.585 10 0 60353 31500.00000 0 -12069109.153 8260574.840 -20864363.780 10 0 60353 32400.00000 0 -14552531.771 8086875.382 -19298010.524 10 0 60353 33300.00000 0 -16825225.344 8102897.366 -17355917.815 10 0 60353 34200.00000 0 -18830069.588 8277074.685 -15076178.436 10 0 60353 35100.00000 0 -20518850.299 8568525.530 -12503393.615 10 0 60353 36000.00000 0 -21854072.295 8928967.165 -9687782.837 10 0 60353 36900.00000 0 -22810331.722 9304949.137 -6684189.789 10 0 60353 37800.00000 0 -23375193.211 9640308.750 -3551005.024 10 0 60353 38700.00000 0 -23549538.463 9878743.998 -349027.221 10 0 60353 39600.00000 0 -23347374.969 9966395.031 2859714.418 10 0 60353 40500.00000 0 -22795116.041 9854325.676 6013153.834 10 0 60353 41400.00000 0 -21930364.936 9500801.431 9050375.323 10 0 60353 42300.00000 0 -20800255.944 8873269.492 11912772.380 10 0 60353 43200.00000 0 -19459422.973 7949959.112 14545157.352 10 0 60353 44100.00000 0 -17967680.742 6721036.626 16896802.419 10 0 60353 45000.00000 0 -16387514.790 5189267.769 18922393.959 10 0 60353 45900.00000 0 -14781483.589 3370160.062 20582884.198 10 0 60353 46800.00000 0 -13209639.072 1291578.932 21846225.913 10 0 60353 47700.00000 0 -11727070.756 -1007147.661 22687977.901 10 0 60353 48600.00000 0 -10381673.391 -3476600.906 23091770.992 10 0 60353 49500.00000 0 -9212229.023 -6059064.996 23049626.466 10 0 60353 50400.00000 0 -8246881.829 -8690671.956 22562120.802 10 0 60353 51300.00000 0 -7502068.416 -11303812.047 21638392.971 10 0 60353 52200.00000 0 -6981948.232 -13829713.205 20295992.710 10 0 60353 53100.00000 0 -6678358.643 -16201085.474 18560570.705 10 0 60353 54000.00000 0 -6571298.081 -18354722.960 16465414.162 10 0 60353 54900.00000 0 -6629919.013 -20233956.575 14050833.963 10 0 60353 55800.00000 0 -6813991.233 -21790855.762 11363412.508 10 0 60353 56700.00000 0 -7075776.060 -22988086.804 8455124.215 10 0 60353 57600.00000 0 -7362234.100 -23800348.523 5382343.646 10 0 60353 58500.00000 0 -7617474.343 -24215323.064 2204759.062 10 0 60353 59400.00000 0 -7785341.106 -24234099.357 -1015788.140 10 0 60353 60300.00000 0 -7812028.394 -23871048.888 -4216515.409 10 0 60353 61200.00000 0 -7648609.011 -23153156.753 -7334937.819 10 0 60353 62100.00000 0 -7253368.554 -22118834.546 -10310107.870 10 0 60353 63000.00000 0 -6593842.069 -20816264.266 -13083829.978 10 0 60353 63900.00000 0 -5648463.582 -19301343.158 -15601823.413 10 0 60353 64800.00000 0 -4407755.196 -17635317.104 -17814808.463 10 0 60353 65700.00000 0 -2875002.404 -15882203.959 -19679492.222 10 0 60353 66600.00000 0 -1066384.654 -14106117.581 -21159432.672 10 0 60353 67500.00000 0 989445.971 -12368607.552 -22225762.661 10 0 60353 68400.00000 0 3252321.016 -10726128.651 -22857758.704 10 0 60353 69300.00000 0 5672006.586 -9227748.223 -23043243.160 10 0 60353 70200.00000 0 8190087.329 -7913188.734 -22778812.265 10 0 60353 71100.00000 0 10742203.293 -6811287.798 -22069886.391 10 0 60353 72000.00000 0 13260544.534 -5938939.463 -20930582.895 10 0 60353 72900.00000 0 15676497.737 -5300559.397 -19383415.660 10 0 60353 73800.00000 0 17923333.121 -4888093.790 -17458829.076 10 0 60353 74700.00000 0 19938818.766 -4681568.415 -15194577.554 10 0 60353 75600.00000 0 21667653.216 -4650151.231 -12634964.620 10 0 60353 76500.00000 0 23063615.620 -4753680.307 -9829958.259 10 0 60353 77400.00000 0 24091345.125 -4944589.473 -6834201.406 10 0 60353 78300.00000 0 24727677.447 -5170147.895 -3705938.129 10 0 60353 79200.00000 0 24962485.481 -5374917.183 -505877.297 10 0 60353 80100.00000 0 24798991.819 -5503321.336 2703983.695 10 0 60353 81000.00000 0 24253543.106 -5502220.902 5861552.375 10 0 60353 81900.00000 0 23354858.397 -5323383.381 8905829.276 10 0 60353 82800.00000 0 22142785.086 -4925746.923 11778068.691 10 0 60353 83700.00000 0 20666615.843 -4277383.561 14422891.210 10 0 60353 84600.00000 0 18983037.369 -3357081.038 16789328.496 10 0 60353 85500.00000 0 17153796.223 -2155478.160 18831782.285 10 0 60354 0.00000 0 15243177.984 -675707.129 20510881.247 10 0 60354 900.00000 0 13315401.829 1066484.747 21794222.248 10 0 60354 1800.00000 0 11432039.165 3043137.731 22656981.435 10 0 60354 2700.00000 0 9649557.766 5214994.198 23082387.851 10 0 60354 3600.00000 0 8017093.588 7532887.505 23062048.985 10 0 60354 4500.00000 0 6574539.896 9939551.271 22596123.074 10 0 60354 5400.00000 0 5351031.909 12371777.270 21693334.077 10 0 60354 6300.00000 0 4363889.348 14762835.861 20370827.674 10 0 60354 7200.00000 0 3618061.149 17045061.677 18653869.077 10 0 60354 8100.00000 0 3106096.395 19152499.819 16575386.013 10 0 60354 9000.00000 0 2808644.226 21023504.334 14175362.938 10 0 60354 9900.00000 0 2695463.660 22603181.519 11500095.419 10 0 60354 10800.00000 0 2726902.899 23845575.938 8601316.548 10 0 60354 11700.00000 0 2855787.599 24715506.502 5535210.159 10 0 60354 12600.00000 0 3029639.685 25189973.688 2361328.583 10 0 60354 13500.00000 0 3193133.408 25259076.248 -858564.785 10 0 60354 14400.00000 0 3290684.294 24926396.071 -4061705.471 10 0 60354 15300.00000 0 3269059.874 24208832.291 -7185565.922 10 0 60354 16200.00000 0 3079899.310 23135889.361 -10169095.815 10 0 60354 17100.00000 0 2682032.124 21748447.573 -12953938.339 10 0 60354 18000.00000 0 2043494.387 20097067.128 -15485596.194 10 0 60354 18900.00000 0 1143153.522 18239897.500 -17714522.052 10 0 60354 19800.00000 0 -28130.321 16240281.195 -19597109.738 10 0 60354 20700.00000 0 -1466858.107 14164154.514 -21096564.722 10 0 60354 21600.00000 0 -3156790.306 12077356.735 -22183635.326 10 0 60354 22500.00000 0 -5069395.284 10042962.914 -22837189.423 10 0 60354 23400.00000 0 -7164829.173 8118754.173 -23044624.986 10 0 60354 24300.00000 0 -9393405.581 6354932.893 -22802106.761 10 0 60354 25200.00000 0 -11697492.425 4792179.074 -22114625.278 10 0 60354 26100.00000 0 -14013754.940 3460128.894 -20995878.326 10 0 60354 27000.00000 0 -16275649.321 2376337.769 -19467978.850 10 0 60354 27900.00000 0 -18416061.261 1545769.043 -17560996.850 10 0 60354 28800.00000 0 -20369977.903 960826.666 -15312346.171 10 0 60354 29700.00000 0 -22077080.983 601926.885 -12766030.138 10 0 60354 30600.00000 0 -23484152.935 438581.174 -9971762.547 10 0 60354 31500.00000 0 -24547196.242 430941.160 -6983982.800 10 0 60354 32400.00000 0 -25233179.032 531737.281 -3860785.690 10 0 60354 33300.00000 0 -25521336.131 688526.896 -662787.541 10 0 60354 34200.00000 0 -25403973.715 846155.299 2548048.717 10 0 60354 35100.00000 0 -24886746.666 949325.021 5709606.761 10 0 60354 36000.00000 0 -23988399.663 945165.083 8760805.816 10 0 60354 36900.00000 0 -22739985.035 785692.706 11642763.297 10 0 60354 37800.00000 0 -21183591.671 430065.112 14299910.205 10 0 60354 38700.00000 0 -19370638.847 -153471.718 16681039.669 10 0 60354 39600.00000 0 -17359806.046 -986017.614 18740270.510 10 0 60354 40500.00000 0 -15214684.044 -2076900.575 20437909.542 10 0 60354 41400.00000 0 -13001243.294 -3423053.029 21741198.220 10 0 60354 42300.00000 0 -10785222.544 -5008908.263 22624931.125 10 0 60354 43200.00000 0 -8629543.521 -6806822.344 23071935.907 10 0 60354 44100.00000 0 -6591856.338 -8778005.909 23073406.312 10 0 60354 45000.00000 0 -4722315.080 -10873929.665 22629082.070 10 0 60354 45900.00000 0 -3061674.002 -13038148.394 21747271.578 10 0 60354 46800.00000 0 -1639782.181 -15208471.102 20444715.651 10 0 60354 47700.00000 0 -474538.804 -17319390.428 18746292.983 10 0 60354 48600.00000 0 428647.011 -19304673.228 16684570.557 10 0 60354 49500.00000 0 1076868.290 -21100006.724 14299204.920 10 0 60354 50400.00000 0 1489202.068 -22645591.159 11636203.130 10 0 60354 51300.00000 0 1695680.956 -23888570.955 8747055.088 10 0 60354 52200.00000 0 1735795.862 -24785201.848 5687751.897 10 0 60354 53100.00000 0 1656591.505 -25302661.385 2517707.820 10 0 60354 54000.00000 0 1510434.294 -25420424.266 -701393.987 10 0 60354 54900.00000 0 1352546.961 -25131141.772 -3906809.448 10 0 60354 55800.00000 0 1238415.198 -24440985.189 -7035970.792 10 0 60354 56700.00000 0 1221178.032 -23369436.009 -10027727.362 10 0 60354 57600.00000 0 1349115.070 -21948529.509 -12823563.654 10 0 60354 58500.00000 0 1663340.273 -20221582.155 -15368768.367 10 0 60354 59400.00000 0 2195803.293 -18241455.992 -17613529.057 10 0 60354 60300.00000 0 2967686.294 -16068433.412 -19513928.661 10 0 60354 61200.00000 0 3988266.985 -13767792.960 -21032822.274 10 0 60354 62100.00000 0 5254298.168 -11407189.751 -22140575.511 10 0 60354 63000.00000 0 6749931.536 -9053952.452 -22815649.029 10 0 60354 63900.00000 0 8447189.558 -6772412.148 -23045017.394 10 0 60354 64800.00000 0 10306965.442 -4621376.497 -22824414.398 10 0 60354 65700.00000 0 12280508.303 -2651855.815 -22158400.794 10 0 60354 66600.00000 0 14311329.780 -905136.259 -21060254.437 10 0 60354 67500.00000 0 16337450.452 588720.232 -19551686.549 10 0 60354 68400.00000 0 18293890.258 1811888.409 -17662391.523 10 0 60354 69300.00000 0 20115297.044 2759264.937 -15429441.019 10 0 60354 70200.00000 0 21738602.198 3438409.543 -12896536.123 10 0 60354 71100.00000 0 23105591.723 3868948.357 -10113133.999 10 0 60354 72000.00000 0 24165285.397 4081468.439 -7133467.727 10 0 60354 72900.00000 0 24876025.395 4115953.647 -4015479.735 10 0 60354 73800.00000 0 25207188.592 4019830.836 -819690.524 10 0 60354 74700.00000 0 25140452.963 3845711.070 2391974.788 10 0 60354 75600.00000 0 24670567.528 3648922.555 5557379.335 10 0 60354 76500.00000 0 23805596.026 3484939.836 8615364.176 10 0 60354 77400.00000 0 22566626.336 3406817.287 11506912.741 10 0 60354 78300.00000 0 20986959.477 3462733.951 14176269.030 10 0 60354 79200.00000 0 19110813.015 3693751.566 16571989.871 10 0 60354 80100.00000 0 16991593.101 4131878.303 18647913.059 10 0 60354 81000.00000 0 14689806.387 4798517.929 20364024.971 10 0 60354 81900.00000 0 12270697.097 5703368.264 21687213.160 10 0 60354 82800.00000 0 9801705.234 6843814.550 22591891.352 10 0 60354 83700.00000 0 7349848.734 8204843.449 23060486.338 10 0 60354 84600.00000 0 4979135.261 9759482.549 23083778.305 10 0 60354 85500.00000 0 2748108.258 11469749.131 22661088.266 10 0 60355 0.00000 0 707626.758 13288071.360 21800308.553 10 0 60355 900.00000 0 -1101031.715 15159126.944 20517773.946 10 0 60355 1800.00000 0 -2647664.680 17022023.606 18837975.277 10 0 60355 2700.00000 0 -3914176.353 18812736.929 16793117.013 10 0 60355 3600.00000 0 -4895101.058 20466704.106 14422525.710 10 0 60355 4500.00000 0 -5597596.409 21921468.030 11771917.581 10 0 60355 5400.00000 0 -6040904.706 23119261.758 8892536.795 10 0 60355 6300.00000 0 -6255303.379 24009424.802 5840179.026 10 0 60355 7200.00000 0 -6280587.002 24550548.445 2674117.664 10 0 60355 8100.00000 0 -6164143.753 24712257.691 -544047.243 10 0 60355 9000.00000 0 -5958707.113 24476551.946 -3751594.903 10 0 60355 9900.00000 0 -5719878.307 23838644.731 -6885920.171 10 0 60355 10800.00000 0 -5503525.707 22807263.882 -9885774.774 10 0 60355 11700.00000 0 -5363173.491 21404396.759 -12692487.081 10 0 60355 12600.00000 0 -5347492.991 19664489.131 -15251134.113 10 0 60355 13500.00000 0 -5498006.128 17633130.193 -17511640.389 10 0 60355 14400.00000 0 -5847101.433 15365278.750 -19429779.741 10 0 60355 15300.00000 0 -6416449.557 12923105.713 -20968058.393 10 0 60355 16200.00000 0 -7215887.740 10373544.797 -22096460.451 10 0 60355 17100.00000 0 -8242822.077 7785655.841 -22793040.228 10 0 60355 18000.00000 0 -9482173.744 5227913.186 -23044349.401 10 0 60355 18900.00000 0 -10906871.485 2765534.210 -22845690.906 10 0 60355 19800.00000 0 -12478868.977 457960.996 -22201195.376 10 0 60355 20700.00000 0 -14150642.910 -1643399.155 -21123719.884 10 0 60355 21600.00000 0 -15867107.165 -3497080.375 -19634572.575 10 0 60355 22500.00000 0 -17567860.797 -5073033.794 -17763070.410 10 0 60355 23400.00000 0 -19189673.698 -6353612.622 -15545940.604 10 0 60355 24300.00000 0 -20669104.175 -7334028.673 -13026579.411 10 0 60355 25200.00000 0 -21945137.723 -8022264.895 -10254184.536 10 0 60355 26100.00000 0 -22961735.988 -8438451.528 -7282779.767 10 0 60355 27000.00000 0 -23670189.459 -8613736.002 -4170152.151 10 0 60355 27900.00000 0 -24031176.310 -8588697.653 -976723.362 10 0 60355 28800.00000 0 -24016442.717 -8411376.883 2235622.251 10 0 60355 29700.00000 0 -23610036.309 -8135003.841 5404730.133 10 0 60355 30600.00000 0 -22809043.254 -7815523.482 8469365.918 10 0 60355 31500.00000 0 -21623800.230 -7509021.428 11370381.625 10 0 60355 32400.00000 0 -20077574.171 -7269158.402 14051836.622 10 0 60355 33300.00000 0 -18205724.237 -7144719.866 16462053.548 10 0 60355 34200.00000 0 -16054381.372 -7177382.178 18554590.960 10 0 60355 35100.00000 0 -13678699.918 -7399787.237 20289116.195 10 0 60355 36000.00000 0 -11140752.659 -7834004.799 21632163.897 10 0 60355 36900.00000 0 -8507154.625 -8490445.760 22557767.486 10 0 60355 37800.00000 0 -5846511.599 -9367271.536 23047953.019 10 0 60355 38700.00000 0 -3226796.055 -10450324.734 23093086.835 10 0 60355 39600.00000 0 -712756.323 -11713585.427 22692070.593 10 0 60355 40500.00000 0 1636536.492 -13120136.254 21852379.405 10 0 60355 41400.00000 0 3769904.359 -14623598.937 20589941.112 10 0 60355 42300.00000 0 5645950.485 -16169985.471 18928857.108 10 0 60355 43200.00000 0 7234542.069 -17699889.944 16900967.680 10 0 60355 44100.00000 0 8517825.741 -19150932.267 14545267.524 10 0 60355 45000.00000 0 9490732.433 -20460353.808 11907179.933 10 0 60355 45900.00000 0 10160949.091 -21567657.498 9037701.091 10 0 60355 46800.00000 0 10548356.682 -22417181.910 5992428.829 10 0 60355 47700.00000 0 10683956.327 -22960500.258 2830493.130 10 0 60355 48600.00000 0 10608327.310 -23158541.516 -386591.664 10 0 60355 49500.00000 0 10369681.158 -22983341.613 -3596130.657 10 0 60355 50400.00000 0 10021593.903 -22419347.620 -6735483.898 10 0 60355 51300.00000 0 9620513.204 -21464216.521 -9743308.009 10 0 60355 52200.00000 0 9223147.531 -20129071.646 -12560777.625 10 0 60355 53100.00000 0 8883850.292 -18438203.214 -15132760.358 10 0 60355 54000.00000 0 8652112.556 -16428223.650 -17408919.780 10 0 60355 54900.00000 0 8570273.598 -14146712.162 -19344722.489 10 0 60355 55800.00000 0 8671549.076 -11650405.448 -20902327.420 10 0 60355 56700.00000 0 8978462.791 -9003011.219 -22051338.413 10 0 60355 57600.00000 0 9501750.200 -6272737.510 -22769404.293 10 0 60355 58500.00000 0 10239781.101 -3529643.004 -23042654.291 10 0 60355 59400.00000 0 11178526.067 -842920.876 -22865960.520 10 0 60355 60300.00000 0 12292067.516 1721768.886 -22243023.119 10 0 60355 61200.00000 0 13543632.598 4104806.390 -21186277.631 10 0 60355 62100.00000 0 14887102.663 6254853.228 -19716628.031 10 0 60355 63000.00000 0 16268933.760 8130735.616 -17863012.409 10 0 60355 63900.00000 0 17630405.307 9702892.369 -15661811.781 10 0 60355 64800.00000 0 18910100.555 10954329.862 -13156115.494 10 0 60355 65700.00000 0 20046513.165 11881047.366 -10394859.416 10 0 60355 66600.00000 0 20980669.490 12491918.731 -7431855.386 10 0 60355 67500.00000 0 21658656.273 12808039.355 -4324732.188 10 0 60355 68400.00000 0 22033948.101 12861569.640 -1133809.632 10 0 60355 69300.00000 0 22069438.055 12694126.878 2079071.780 10 0 60355 70200.00000 0 21739088.000 12354795.815 5251742.849 10 0 60355 71100.00000 0 21029131.224 11897843.321 8322896.671 10 0 60355 72000.00000 0 19938778.970 11380234.127 11233256.539 10 0 60355 72900.00000 0 18480403.041 10859051.936 13926699.590 10 0 60355 73800.00000 0 16679188.026 10388933.390 16351316.382 10 0 60355 74700.00000 0 14572268.241 10019621.123 18460388.028 10 0 60355 75600.00000 0 12207385.071 9793736.697 20213264.334 10 0 60355 76500.00000 0 9641119.426 9744864.926 21576128.223 10 0 60355 77400.00000 0 6936770.837 9896028.189 22522633.704 10 0 60355 78300.00000 0 4161968.585 10258613.574 23034406.649 10 0 60355 79200.00000 0 1386110.839 10831797.420 23101399.762 10 0 60355 80100.00000 0 -1322265.288 11602491.972 22722095.150 10 0 60355 81000.00000 0 -3898076.912 12545817.850 21903550.194 10 0 60355 81900.00000 0 -6282147.005 13626084.908 20661284.579 10 0 60355 82800.00000 0 -8423414.796 14798243.302 19019008.829 10 0 60355 83700.00000 0 -10280814.356 16009747.157 17008197.150 10 0 60355 84600.00000 0 -11824743.563 17202755.822 14667510.137 10 0 60355 85500.00000 0 -13038061.646 18316582.961 12042075.649 10 0 60356 0.00000 0 -13916572.351 19290292.436 9182639.451 10 0 60356 900.00000 0 -14468971.203 20065333.178 6144598.204 10 0 60356 1800.00000 0 -14716256.069 20588100.596 2986935.876 10 0 60356 2700.00000 0 -14690625.619 20812316.954 -228921.759 10 0 60356 3600.00000 0 -14433909.552 20701126.641 -3440308.521 10 0 60356 4500.00000 0 -13995596.717 20228815.370 -6584552.413 10 0 60356 5400.00000 0 -13430544.580 19382077.156 -9600217.588 10 0 60356 6300.00000 0 -12796467.997 18160772.099 -12428327.431 10 0 60356 7200.00000 0 -12151315.428 16578139.762 -15013542.399 10 0 60356 8100.00000 0 -11550646.112 14660456.610 -17305267.119 10 0 60356 9000.00000 0 -11045122.034 12446150.115 -19258662.662 10 0 60356 9900.00000 0 -10678223.632 9984406.003 -20835542.063 10 0 60356 10800.00000 0 -10484288.384 7333327.183 -22005129.959 10 0 60356 11700.00000 0 -10486957.202 4557722.376 -22744670.411 10 0 60356 12600.00000 0 -10698095.503 1726618.471 -23039870.572 10 0 60356 13500.00000 0 -11117234.904 -1089397.734 -22885171.717 10 0 60356 14400.00000 0 -11731558.648 -3820895.820 -22283843.067 10 0 60356 15300.00000 0 -12516430.150 -6402261.419 -21247897.785 10 0 60356 16200.00000 0 -13436440.546 -8774187.747 -19797834.378 10 0 60356 17100.00000 0 -14446928.898 -10885895.297 -17962210.355 10 0 60356 18000.00000 0 -15495908.660 -12696988.183 -15777058.434 10 0 60356 18900.00000 0 -16526317.020 -14178871.684 -13285158.649 10 0 60356 19800.00000 0 -17478490.532 -15315674.589 -10535182.392 10 0 60356 20700.00000 0 -18292761.403 -16104641.211 -7580726.761 10 0 60356 21600.00000 0 -18912064.482 -16555980.437 -4479259.410 10 0 60356 22500.00000 0 -19284445.219 -16692181.981 -1290995.396 10 0 60356 23400.00000 0 -19365363.776 -16546832.087 1922271.506 10 0 60356 24300.00000 0 -19119699.700 -16162981.437 5098360.279 10 0 60356 25200.00000 0 -18523374.553 -15591136.064 8175894.249 10 0 60356 26100.00000 0 -17564526.234 -14886957.031 11095470.630 10 0 60356 27000.00000 0 -16244187.455 -14108765.851 13800786.825 10 0 60356 27900.00000 0 -14576441.298 -13314959.888 16239703.585 10 0 60356 28800.00000 0 -12588048.116 -12561444.872 18365226.571 10 0 60356 29700.00000 0 -10317559.283 -11899190.380 20136389.684 10 0 60356 30600.00000 0 -7813953.833 -11372008.621 21519025.366 10 0 60356 31500.00000 0 -5134852.947 -11014647.497 22486409.007 10 0 60356 32400.00000 0 -2344383.961 -10851276.102 23019766.657 10 0 60356 33300.00000 0 489220.600 -10894424.960 23108637.309 10 0 60356 34200.00000 0 3296192.730 -11144425.117 22751083.057 10 0 60356 35100.00000 0 6007864.291 -11589370.218 21953742.719 10 0 60356 36000.00000 0 8559261.867 -12205604.725 20731726.684 10 0 60356 36900.00000 0 10891555.936 -12958720.087 19108353.169 10 0 60356 37800.00000 0 12954264.402 -13805019.904 17114728.603 10 0 60356 38700.00000 0 14707119.650 -14693395.516 14789177.499 10 0 60356 39600.00000 0 16121521.165 -15567535.986 12176530.049 10 0 60356 40500.00000 0 17181512.115 -16368381.709 9327278.565 10 0 60356 41400.00000 0 17884237.451 -17036719.683 6296616.824 10 0 60356 42300.00000 0 18239862.283 -17515811.346 3143379.343 10 0 60356 43200.00000 0 18270952.002 -17753941.291 -71099.736 10 0 60356 44100.00000 0 18011338.467 -17706777.345 -3284186.046 10 0 60356 45000.00000 0 17504518.904 -17339439.556 -6433178.563 10 0 60356 45900.00000 0 16801654.701 -16628187.284 -9456551.840 10 0 60356 46800.00000 0 15959255.121 -15561649.490 -12295180.645 10 0 60356 47700.00000 0 15036645.193 -14141542.751 -14893520.651 10 0 60356 48600.00000 0 14093326.867 -12382843.617 -17200719.595 10 0 60356 49500.00000 0 13186347.538 -10313405.638 -19171634.737 10 0 60356 50400.00000 0 12367789.889 -7973035.707 -20767734.576 10 0 60356 51300.00000 0 11682491.657 -5412067.917 -21957865.518 10 0 60356 52200.00000 0 11166093.748 -2689495.043 -22718867.430 10 0 60356 53100.00000 0 10843500.532 129263.071 -23036025.545 10 0 60356 54000.00000 0 10727817.884 2974859.479 -22903350.050 10 0 60356 54900.00000 0 10819813.431 5776682.416 -22323678.615 10 0 60356 55800.00000 0 11107920.633 8465567.332 -21308601.025 10 0 60356 56700.00000 0 11568784.634 10976444.537 -19878208.999 10 0 60356 57600.00000 0 12168324.500 13250811.752 -18060677.837 10 0 60356 58500.00000 0 12863264.419 15238928.868 -15891690.051 10 0 60356 59400.00000 0 13603066.655 16901644.729 -13413714.179 10 0 60356 60300.00000 0 14332182.389 18211781.906 -10675154.691 10 0 60356 61200.00000 0 14992523.632 19155024.458 -7729391.267 10 0 60356 62100.00000 0 15526050.707 19730275.049 -4633727.552 10 0 60356 63000.00000 0 15877365.701 19949470.099 -1448270.843 10 0 60356 63900.00000 0 15996202.763 19836864.330 1765234.869 10 0 60356 64800.00000 0 15839711.226 19427817.962 4944599.765 10 0 60356 65700.00000 0 15374436.818 18767140.030 8028380.281 10 0 60356 66600.00000 0 14577919.317 17907059.147 10957050.225 10 0 60356 67500.00000 0 13439841.221 16904907.690 13674129.675 10 0 60356 68400.00000 0 11962680.743 15820616.407 16127251.692 10 0 60356 69300.00000 0 10161842.705 14714123.523 18269148.300 10 0 60356 70200.00000 0 8065262.163 13642805.175 20058539.001 10 0 60356 71100.00000 0 5712496.646 12659032.611 21460906.950 10 0 60356 72000.00000 0 3153343.423 11807956.089 22449149.795 10 0 60356 72900.00000 0 446036.959 11125605.981 23004094.296 10 0 60356 73800.00000 0 -2344901.517 10637388.783 23114865.889 10 0 60356 74700.00000 0 -5151076.505 10357039.907 22779106.402 10 0 60356 75600.00000 0 -7902796.272 10286076.860 22003035.397 10 0 60356 76500.00000 0 -10531712.935 10413776.431 20801352.799 10 0 60356 77400.00000 0 -12973417.905 10717678.383 19196982.889 10 0 60356 78300.00000 0 -15169887.126 11164596.755 17220662.240 10 0 60356 79200.00000 0 -17071675.705 11712098.921 14910376.834 10 0 60356 80100.00000 0 -18639770.771 12310392.878 12310656.440 10 0 60356 81000.00000 0 -19847024.614 12904545.694 9471737.229 10 0 60356 81900.00000 0 -20679106.721 13436941.298 6448606.527 10 0 60356 82800.00000 0 -21134932.793 13849874.728 3299946.584 10 0 60356 83700.00000 0 -21226550.525 14088173.012 86996.909 10 0 60356 84600.00000 0 -20978484.794 14101730.520 -3127642.851 10 0 60356 85500.00000 0 -20426568.146 13847849.265 -6281245.429 99